#timestamp,LO_Frequency,Hit,StdDev 
1566036015.1,286047000.6,N
1566036035.9,286047000.2,N
1566036055.7,286047011.9,Y
1566036075.5,286047000.6,P
1566036095.4,286046998.3,P
1566036115.2,286046998.7,N
1566036135.0,286046997.1,N
1566036135.9,286046997.1,N
1566036155.8,286046995.7,Y
1566036175.6,286046998.0,P
1566036195.5,286046996.8,P
1566036215.3,286047000.8,N
1566036235.1,286046999.9,N
1566036255.9,286046998.8,N
1566036275.7,286046999.1,N
1566036295.6,286046999.6,N
1566036315.4,286046997.3,N
1566036335.2,286047000.9,N
1566036355.1,286046998.2,N
1566036356.0,286046998.2,N
1566036375.8,286047001.0,N
1566036395.6,286046998.6,N
1566036415.5,286046999.2,N
1566036435.3,286046999.3,N
1566036455.1,286046997.3,N
1566036475.9,286046998.8,N
1566036495.7,286047000.6,N
1566036515.6,286047002.6,N
1566036535.4,286047002.6,N
1566036555.2,286047003.4,N
1566036575.1,286047003.9,N
1566036576.0,286047003.9,N
1566036595.8,286047002.4,N
1566036615.7,286047002.1,N
1566036635.5,286047001.8,N
1566036655.3,286047001.3,N
1566036675.2,286047004.3,N
1566036695.9,286047003.6,N
1566036715.7,286047001.7,N
1566036735.6,286047003.5,N
1566036755.4,286047001.4,N
1566036775.2,286047002.1,N
1566036795.1,286047002.0,N
1566036796.0,286047002.0,N
1566036815.8,286047004.3,N
1566036835.7,286047002.4,N
1566036855.5,286046999.8,N
1566036875.3,286047000.2,N
1566036895.2,286047002.4,N
1566036915.0,286047000.9,N
1566036915.9,286047000.9,N
1566036935.8,286046998.5,N
1566036955.6,286046998.3,N
1566036975.4,286047001.2,N
1566036995.3,286047001.2,N
1566037015.1,286047001.1,N
1566037035.8,286046998.9,N
1566037055.7,286046999.3,N
1566037075.5,286046996.5,N
1566037095.4,286046999.6,N
1566037115.2,286046999.6,N
1566037135.0,286046995.0,N
1566037135.9,286046995.0,N
1566037155.8,286046997.4,N
1566037175.6,286046996.9,N
1566037195.4,286046998.7,N
1566037215.3,286046998.5,N
1566037235.1,286046998.7,N
1566037255.9,286046998.6,N
1566037275.7,286046999.8,N
1566037295.5,286047000.3,N
1566037315.4,286047002.8,N
1566037335.2,286047000.2,N
1566037355.0,286047004.4,N
1566037355.9,286047004.4,N
1566037375.8,286047003.6,N
1566037395.6,286047004.4,N
1566037415.5,286047002.0,N
1566037435.3,286047003.6,N
1566037455.1,286047002.1,N
1566037475.9,286047000.2,N
1566037495.7,286047001.2,N
1566037515.5,286046998.8,N
1566037535.4,286046999.0,N
1566037555.2,286046999.0,N
1566037575.1,286046998.4,N
1566037576.0,286046998.4,N
1566037595.8,286047000.9,N
1566037615.6,286047002.5,N
1566037635.5,286047001.9,N
1566037655.3,286046999.8,N
1566037675.1,286047000.6,N
1566037695.9,286046996.5,N
1566037715.7,286046998.8,N
1566037735.6,286047000.7,N
1566037755.4,286046999.9,N
1566037775.2,286046999.9,N
1566037795.1,286047002.1,N
1566037796.0,286047002.1,N
1566037815.8,286047001.5,N
1566037835.7,286047000.2,N
1566037855.5,286047001.1,N
1566037875.3,286047000.9,N
1566037895.2,286046999.1,N
1566037915.9,286046999.4,N
1566037935.7,286047000.6,N
1566037955.6,286046999.9,N
1566037975.4,286047002.3,N
1566037995.2,286047002.3,N
1566038015.1,286047000.3,N
1566038016.0,286047000.3,N
1566038035.8,286047000.4,N
1566038055.7,286047002.2,N
1566038075.5,286047001.2,N
1566038095.3,286046999.2,N
1566038115.2,286046998.0,N
1566038135.0,286046995.4,Y
1566038135.9,286046995.4,P
1566038155.8,286046994.9,N
1566038175.6,286046999.6,N
1566038195.4,286047000.8,N
1566038215.3,286047000.9,N
1566038235.1,286047000.6,N
1566038255.8,286047000.6,N
1566038275.7,286046999.9,N
1566038295.5,286047000.0,N
1566038315.4,286046999.7,N
1566038335.2,286047002.4,N
1566038355.0,286047001.4,N
1566038355.9,286047001.4,N
1566038375.8,286047002.2,N
1566038395.6,286047002.4,N
1566038415.4,286047003.8,N
1566038435.3,286047002.5,N
1566038455.1,286047002.5,N
1566038475.9,286047000.9,N
1566038495.7,286046998.2,N
1566038515.5,286046996.5,N
1566038535.4,286046999.0,N
1566038555.2,286046998.1,N
1566038575.0,286046998.7,N
1566038575.9,286046998.7,N
1566038595.8,286046997.7,N
1566038615.6,286046995.4,N
1566038635.5,286046999.2,N
1566038655.3,286046997.4,N
1566038675.1,286046996.9,N
1566038695.9,286046999.0,N
1566038715.7,286046999.5,N
1566038735.6,286046999.2,N
1566038755.4,286046998.5,N
1566038775.2,286046998.9,N
1566038795.1,286047000.6,N
1566038796.0,286047000.6,N
1566038815.8,286047000.9,N
1566038835.7,286046998.6,N
1566038855.5,286046996.9,N
1566038875.3,286046997.7,N
1566038895.2,286046997.5,N
1566038915.9,286046997.0,N
1566038935.7,286046998.9,N
1566038955.6,286046999.1,N
1566038975.4,286046999.0,N
1566038995.2,286046996.7,N
1566039015.1,286046996.8,N
1566039016.0,286046996.8,N
1566039035.8,286046998.7,N
1566039055.7,286046999.0,N
1566039075.5,286046997.0,N
1566039095.3,286046998.6,N
1566039115.2,286046998.2,N
1566039135.0,286046998.9,N
1566039135.9,286046998.9,N
1566039155.8,286046999.4,N
1566039175.6,286046996.6,N
1566039195.4,286046996.8,N
1566039215.3,286046998.1,N
1566039235.1,286046998.3,N
1566039255.8,286046998.9,N
1566039275.7,286046999.9,N
1566039295.5,286046998.1,N
1566039315.4,286046999.0,N
1566039335.2,286046997.3,N
1566039355.0,286046994.9,Y
1566039355.9,286046994.9,P
1566039375.8,286046997.4,N
1566039395.6,286046999.0,N
1566039415.4,286047000.1,N
1566039435.3,286047001.2,N
1566039455.1,286047000.4,N
1566039475.9,286047000.7,N
1566039495.7,286046999.0,N
1566039515.5,286046999.3,N
1566039535.4,286046999.3,N
1566039555.2,286047000.6,N
1566039575.0,286046999.0,N
1566039575.9,286046999.0,N
1566039595.8,286046999.5,N
